Location: Unspecified
(0.0000°N, 0.0000°E)
Time: 03:50:02
(UTC+00:00)

Elektron 3 - Visible Passes

Search period start: 07 October 2022 00:00
Search period end: 17 October 2022 00:00
Orbit: 409 x 6147 km, 60.8° (Epoch: 06 October)

Date Brightness Start Highest point End Pass type
(mag) Time Alt. Az. Time Alt. Az. Time Alt. Az.
07 Oct 9.6 02:42:20 10° N 03:17:35 63° ENE 03:49:08 10° SE visible
08 Oct 9.7 02:18:27 10° N 02:52:53 57° ENE 03:24:22 10° SE visible
08 Oct 9.4 05:05:28 10° NW 05:40:35 50° WSW 06:08:29 10° S visible
09 Oct 9.8 01:54:40 10° N 02:28:09 51° ENE 02:59:25 10° SE visible
09 Oct 9.4 04:40:17 10° NW 05:16:07 57° WSW 05:44:49 10° S visible
10 Oct 9.8 01:31:01 10° N 02:03:24 45° ENE 02:34:16 10° SE visible
10 Oct 9.3 04:15:17 10° NW 04:51:37 63° WSW 05:21:03 10° S visible
11 Oct 9.9 01:07:30 10° N 01:38:37 40° ENE 02:08:50 10° SE visible
11 Oct 9.3 03:50:26 10° NNW 04:27:05 70° WSW 04:57:09 10° SSE visible
12 Oct 10.0 00:44:11 10° N 01:13:48 35° ENE 01:43:04 10° ESE visible
12 Oct 9.3 03:25:43 10° NNW 04:02:30 76° WSW 04:33:08 10° SSE visible
13 Oct 10.0 00:21:06 10° NNE 00:48:56 30° ENE 01:16:52 10° ESE visible
13 Oct 9.2 03:01:07 10° NNW 03:37:53 83° WSW 04:09:01 10° SSE visible
13 Oct 10.1 23:58:20 10° NNE 00:24:00 25° ENE 00:50:07 10° ESE visible
14 Oct 9.2 02:36:39 10° NNW 03:13:13 90° ENE 03:44:47 10° SSE visible
14 Oct 10.1 23:36:05 10° NNE 23:58:59 21° ENE 00:22:34 10° ESE visible
15 Oct 9.3 02:12:16 10° NNW 02:48:31 83° ENE 03:20:26 10° SSE visible
15 Oct 9.6 05:06:21 10° WNW 05:35:32 29° WSW 05:59:30 10° SSW visible
15 Oct 10.1 23:14:41 10° NNE 23:33:53 17° ENE 23:53:46 10° E visible
16 Oct 9.3 01:47:59 10° NNW 02:23:47 76° ENE 02:55:57 10° SSE visible
16 Oct 9.6 04:39:48 10° NW 05:10:57 34° WSW 05:36:28 10° SSW visible
